Time,TemperatureF,DewpointF,PressureIn,WindDirection,WindDirectionDegrees,WindSpeedMPH,WindSpeedGustMPH,Humidity,HourlyPrecipIn,Conditions,Clouds,dailyrainin,SolarRadiationWatts/m^2,SoftwareType,DateUTC
2013-08-14 00:00:00,67.8,61.4,30.06,NNE,15,3.0,4.0,80,0.00,,---,0.13,0.00,VWS V14.01,2013-08-14 05:00:00,
2013-08-14 00:02:00,67.8,61.4,30.07,NNE,15,3.0,4.0,80,0.00,,---,0.00,0.00,VWS V14.01,2013-08-14 05:02:00,
2013-08-14 00:07:00,67.8,61.4,30.07,NNE,15,2.0,4.0,80,0.00,,---,0.00,0.00,VWS V14.01,2013-08-14 05:07:00,
2013-08-14 00:12:00,67.6,61.2,30.07,NNE,15,2.0,4.0,80,0.00,,---,0.00,0.00,VWS V14.01,2013-08-14 05:12:00,
2013-08-14 00:17:00,67.6,61.6,30.07,NNE,15,3.0,4.0,81,0.00,,---,0.00,0.00,VWS V14.01,2013-08-14 05:17:00,
2013-08-14 00:22:00,67.4,61.4,30.06,NNE,15,3.0,4.0,81,0.00,,---,0.00,0.00,VWS V14.01,2013-08-14 05:22:00,
2013-08-14 00:27:00,67.3,61.6,30.06,NNE,15,3.0,4.0,82,0.00,,---,0.00,0.00,VWS V14.01,2013-08-14 05:27:00,
2013-08-14 00:30:00,67.3,61.6,30.06,NNE,15,1.0,4.0,82,0.00,,---,0.00,0.00,VWS V14.01,2013-08-14 05:30:00,
2013-08-14 00:32:00,67.1,61.8,30.06,NNE,15,3.0,3.0,83,0.00,,---,0.00,0.00,VWS V14.01,2013-08-14 05:32:00,
2013-08-14 00:37:00,66.9,61.6,30.06,NNE,15,2.0,3.0,83,0.00,,---,0.00,0.00,VWS V14.01,2013-08-14 05:37:00,
2013-08-14 00:43:00,66.9,61.9,30.06,NNE,15,3.0,4.0,84,0.00,,---,0.00,0.00,VWS V14.01,2013-08-14 05:43:00,
2013-08-14 00:48:00,66.8,61.8,30.06,NNE,15,1.0,4.0,84,0.00,,---,0.00,0.00,VWS V14.01,2013-08-14 05:48:00,
2013-08-14 00:53:00,66.8,61.5,30.06,NNE,15,1.0,4.0,83,0.00,,---,0.00,0.00,VWS V14.01,2013-08-14 05:53:00,
2013-08-14 00:58:00,66.9,61.6,30.07,NNE,15,2.0,4.0,83,0.00,,---,0.00,0.00,VWS V14.01,2013-08-14 05:58:00,
2013-08-14 01:00:00,66.9,61.6,30.06,NNE,15,2.0,4.0,83,0.00,,---,0.00,0.00,VWS V14.01,2013-08-14 06:00:00,
2013-08-14 01:03:00,66.8,61.5,30.06,NNE,15,2.0,3.0,83,0.00,,---,0.00,0.00,VWS V14.01,2013-08-14 06:03:00,
2013-08-14 01:08:00,66.8,61.8,30.06,NNE,15,0.0,3.0,84,0.00,,---,0.00,0.00,VWS V14.01,2013-08-14 06:08:00,
2013-08-14 01:13:00,66.6,61.6,30.07,NNE,15,0.0,3.0,84,0.00,,---,0.00,0.00,VWS V14.01,2013-08-14 06:13:00,
2013-08-14 01:18:00,66.4,61.8,30.07,NNE,15,0.0,3.0,85,0.00,,---,0.00,0.00,VWS V14.01,2013-08-14 06:18:00,
2013-08-14 01:23:00,66.3,61.7,30.06,NNE,15,0.0,3.0,85,0.00,,---,0.00,0.00,VWS V14.01,2013-08-14 06:23:00,
2013-08-14 01:28:00,66.1,61.8,30.06,NNE,15,0.0,3.0,86,0.00,,---,0.00,0.00,VWS V14.01,2013-08-14 06:28:00,
2013-08-14 01:30:00,66.1,61.8,30.06,NNE,15,0.0,3.0,86,0.00,,---,0.00,0.00,VWS V14.01,2013-08-14 06:30:00,
2013-08-14 01:33:00,66.0,61.7,30.06,NNE,15,0.0,0.0,86,0.00,,---,0.00,0.00,VWS V14.01,2013-08-14 06:33:00,
2013-08-14 01:38:00,65.8,61.5,30.06,NNE,15,1.0,2.0,86,0.00,,---,0.00,0.00,VWS V14.01,2013-08-14 06:38:00,
2013-08-14 01:43:00,65.6,61.3,30.06,NNE,15,0.0,2.0,86,0.00,,---,0.00,0.00,VWS V14.01,2013-08-14 06:43:00,
2013-08-14 01:48:00,65.6,61.3,30.06,NNE,15,0.0,2.0,86,0.00,,---,0.00,0.00,VWS V14.01,2013-08-14 06:48:00,
2013-08-14 01:53:00,65.5,61.2,30.06,NNE,15,0.0,2.0,86,0.00,,---,0.00,0.00,VWS V14.01,2013-08-14 06:53:00,
2013-08-14 01:58:00,65.3,61.3,30.06,NNE,15,0.0,2.0,87,0.00,,---,0.00,0.00,VWS V14.01,2013-08-14 06:58:00,
2013-08-14 02:00:00,65.3,61.3,30.06,NNE,15,0.0,2.0,87,0.00,,---,0.00,0.00,VWS V14.01,2013-08-14 07:00:00,
2013-08-14 02:03:00,65.2,61.2,30.07,NNE,15,0.0,0.0,87,0.00,,---,0.00,0.00,VWS V14.01,2013-08-14 07:03:00,
2013-08-14 02:08:00,65.2,61.6,30.07,NNE,15,0.0,1.0,88,0.00,,---,0.00,0.00,VWS V14.01,2013-08-14 07:08:00,
2013-08-14 02:13:00,65.0,61.4,30.07,NNE,15,0.0,1.0,88,0.00,,---,0.00,0.00,VWS V14.01,2013-08-14 07:13:00,
2013-08-14 02:18:00,64.8,61.2,30.07,NNE,15,0.0,1.0,88,0.00,,---,0.00,0.00,VWS V14.01,2013-08-14 07:18:00,
2013-08-14 02:23:00,64.7,61.4,30.07,NNE,15,0.0,1.0,89,0.00,,---,0.00,0.00,VWS V14.01,2013-08-14 07:23:00,
2013-08-14 02:28:00,64.7,61.4,30.07,NNE,15,2.0,2.0,89,0.00,,---,0.00,0.00,VWS V14.01,2013-08-14 07:28:00,
2013-08-14 02:30:00,64.7,61.4,30.07,NNE,15,0.0,2.0,89,0.00,,---,0.00,0.00,VWS V14.01,2013-08-14 07:30:00,
2013-08-14 02:33:00,64.7,61.4,30.07,NNE,15,0.0,1.0,89,0.00,,---,0.00,0.00,VWS V14.01,2013-08-14 07:33:00,
2013-08-14 02:38:00,64.5,61.2,30.07,NNE,15,0.0,1.0,89,0.00,,---,0.00,0.00,VWS V14.01,2013-08-14 07:38:00,
2013-08-14 02:43:00,64.3,61.0,30.07,NNE,15,1.0,1.0,89,0.00,,---,0.00,0.00,VWS V14.01,2013-08-14 07:43:00,
2013-08-14 02:48:00,64.3,61.0,30.07,NNE,15,2.0,2.0,89,0.00,,---,0.00,0.00,VWS V14.01,2013-08-14 07:48:00,
2013-08-14 02:53:00,64.2,60.9,30.07,NNE,15,1.0,3.0,89,0.00,,---,0.00,0.00,VWS V14.01,2013-08-14 07:53:00,
2013-08-14 02:58:00,64.2,61.2,30.07,NNE,15,1.0,3.0,90,0.00,,---,0.00,0.00,VWS V14.01,2013-08-14 07:58:00,
2013-08-14 03:00:00,64.2,61.2,30.07,NNE,15,2.0,3.0,90,0.00,,---,0.00,0.00,VWS V14.01,2013-08-14 08:00:00,
2013-08-14 03:03:00,64.2,61.2,30.07,NNE,15,0.0,2.0,90,0.00,,---,0.00,0.00,VWS V14.01,2013-08-14 08:03:00,
2013-08-14 03:08:00,64.3,61.0,30.07,NNE,15,0.0,2.0,89,0.00,,---,0.00,0.00,VWS V14.01,2013-08-14 08:08:00,
2013-08-14 03:13:00,64.3,61.0,30.07,NNE,15,0.0,2.0,89,0.00,,---,0.00,0.00,VWS V14.01,2013-08-14 08:13:00,
2013-08-14 03:18:00,64.2,60.9,30.06,NNE,15,2.0,2.0,89,0.00,,---,0.00,0.00,VWS V14.01,2013-08-14 08:18:00,
2013-08-14 03:23:00,64.2,60.9,30.07,NNE,15,0.0,2.0,89,0.00,,---,0.00,0.00,VWS V14.01,2013-08-14 08:23:00,
2013-08-14 03:28:00,64.2,60.9,30.07,NNE,15,0.0,2.0,89,0.00,,---,0.00,0.00,VWS V14.01,2013-08-14 08:28:00,
2013-08-14 03:30:00,64.2,60.9,30.07,NNE,15,0.0,2.0,89,0.00,,---,0.00,0.00,VWS V14.01,2013-08-14 08:30:00,
2013-08-14 03:33:00,64.0,60.7,30.07,NNE,15,0.0,0.0,89,0.00,,---,0.00,0.00,VWS V14.01,2013-08-14 08:33:00,
2013-08-14 03:38:00,63.9,60.6,30.07,NNE,15,0.0,0.0,89,0.00,,---,0.00,0.00,VWS V14.01,2013-08-14 08:38:00,
2013-08-14 03:43:00,63.9,60.6,30.07,NNE,15,1.0,1.0,89,0.00,,---,0.00,0.00,VWS V14.01,2013-08-14 08:43:00,
2013-08-14 03:48:00,63.7,60.4,30.07,NNE,15,0.0,1.0,89,0.00,,---,0.00,0.00,VWS V14.01,2013-08-14 08:48:00,
2013-08-14 03:53:00,63.5,60.5,30.07,NNE,15,0.0,1.0,90,0.00,,---,0.00,0.00,VWS V14.01,2013-08-14 08:53:00,
2013-08-14 03:58:00,63.5,60.5,30.07,NNE,15,0.0,1.0,90,0.00,,---,0.00,0.00,VWS V14.01,2013-08-14 08:58:00,
2013-08-14 04:00:00,63.4,60.4,30.07,NNE,15,0.0,1.0,90,0.00,,---,0.00,0.00,VWS V14.01,2013-08-14 09:00:00,
2013-08-14 04:03:00,63.4,60.4,30.07,NNE,15,0.0,0.0,90,0.00,,---,0.00,0.00,VWS V14.01,2013-08-14 09:03:00,
2013-08-14 04:08:00,63.4,60.4,30.07,NNE,15,0.0,0.0,90,0.00,,---,0.00,0.00,VWS V14.01,2013-08-14 09:08:00,
2013-08-14 04:13:00,63.4,60.7,30.07,NNE,15,0.0,0.0,91,0.00,,---,0.00,0.00,VWS V14.01,2013-08-14 09:13:00,
2013-08-14 04:18:00,63.4,60.7,30.07,NNE,15,0.0,0.0,91,0.00,,---,0.00,0.00,VWS V14.01,2013-08-14 09:18:00,
2013-08-14 04:23:00,63.4,60.7,30.06,NNE,15,1.0,2.0,91,0.00,,---,0.00,0.00,VWS V14.01,2013-08-14 09:23:00,
2013-08-14 04:28:00,63.4,60.7,30.06,NNE,15,0.0,2.0,91,0.00,,---,0.00,0.00,VWS V14.01,2013-08-14 09:28:00,
2013-08-14 04:30:00,63.4,60.7,30.06,NNE,15,0.0,2.0,91,0.00,,---,0.00,0.00,VWS V14.01,2013-08-14 09:30:00,
2013-08-14 04:33:00,63.2,60.5,30.07,NNE,15,0.0,0.0,91,0.00,,---,0.00,0.00,VWS V14.01,2013-08-14 09:33:00,
2013-08-14 04:38:00,63.2,60.5,30.07,NNE,15,0.0,0.0,91,0.00,,---,0.00,0.00,VWS V14.01,2013-08-14 09:38:00,
2013-08-14 04:43:00,63.1,60.4,30.07,NNE,15,0.0,0.0,91,0.00,,---,0.00,0.00,VWS V14.01,2013-08-14 09:43:00,
2013-08-14 04:48:00,62.9,60.2,30.07,NNE,15,0.0,0.0,91,0.00,,---,0.00,0.00,VWS V14.01,2013-08-14 09:48:00,
2013-08-14 04:53:00,62.7,60.0,30.07,NNE,15,0.0,0.0,91,0.00,,---,0.00,0.00,VWS V14.01,2013-08-14 09:53:00,
2013-08-14 04:58:00,62.7,60.0,30.06,NNE,15,0.0,1.0,91,0.00,,---,0.00,0.00,VWS V14.01,2013-08-14 09:58:00,
2013-08-14 05:00:00,62.6,59.9,30.07,NNE,15,0.0,1.0,91,0.00,,---,0.00,0.00,VWS V14.01,2013-08-14 10:00:00,
2013-08-14 05:03:00,62.6,60.2,30.07,NNE,15,0.0,1.0,92,0.00,,---,0.00,0.00,VWS V14.01,2013-08-14 10:03:00,
2013-08-14 05:08:00,62.6,60.2,30.07,NNE,15,0.0,2.0,92,0.00,,---,0.00,0.00,VWS V14.01,2013-08-14 10:08:00,
2013-08-14 05:13:00,62.6,60.2,30.07,NNE,15,0.0,2.0,92,0.00,,---,0.00,0.00,VWS V14.01,2013-08-14 10:13:00,
2013-08-14 05:18:00,62.4,60.0,30.07,NNE,15,0.0,2.0,92,0.00,,---,0.00,0.00,VWS V14.01,2013-08-14 10:18:00,
2013-08-14 05:23:00,62.4,60.0,30.06,NNE,15,0.0,2.0,92,0.00,,---,0.00,0.00,VWS V14.01,2013-08-14 10:23:00,
2013-08-14 05:28:00,62.3,60.0,30.06,NNE,15,0.0,2.0,92,0.00,,---,0.00,0.00,VWS V14.01,2013-08-14 10:28:00,
2013-08-14 05:30:00,62.3,60.0,30.06,NNE,15,0.0,2.0,92,0.00,,---,0.00,0.00,VWS V14.01,2013-08-14 10:30:00,
2013-08-14 05:34:00,62.0,59.7,30.06,NNE,15,0.0,1.0,92,0.01,,---,0.01,0.00,VWS V14.01,2013-08-14 10:34:00,
2013-08-14 05:39:00,61.8,59.5,30.06,NNE,15,0.0,1.0,92,0.01,,---,0.01,0.00,VWS V14.01,2013-08-14 10:39:00,
2013-08-14 05:44:00,61.8,59.5,30.06,NNE,15,0.0,1.0,92,0.01,,---,0.01,0.00,VWS V14.01,2013-08-14 10:44:00,
2013-08-14 05:49:00,61.8,59.5,30.06,NNE,15,0.0,2.0,92,0.01,,---,0.01,0.00,VWS V14.01,2013-08-14 10:49:00,
2013-08-14 05:54:00,61.6,59.3,30.06,NNE,15,1.0,2.0,92,0.01,,---,0.01,0.00,VWS V14.01,2013-08-14 10:54:00,
2013-08-14 05:59:00,61.6,59.6,30.06,NNE,15,0.0,2.0,93,0.01,,---,0.01,0.00,VWS V14.01,2013-08-14 10:59:00,
2013-08-14 06:00:00,61.6,59.6,30.06,NNE,15,0.0,2.0,93,0.01,,---,0.01,0.00,VWS V14.01,2013-08-14 11:00:00,
2013-08-14 06:04:00,61.8,59.8,30.06,NNE,15,0.0,0.0,93,0.01,,---,0.01,0.00,VWS V14.01,2013-08-14 11:04:00,
2013-08-14 06:09:00,61.6,59.3,30.06,NNE,15,0.0,1.0,92,0.01,,---,0.01,0.00,VWS V14.01,2013-08-14 11:09:00,
2013-08-14 06:14:00,61.3,59.0,30.06,NNE,15,1.0,2.0,92,0.01,,---,0.01,0.00,VWS V14.01,2013-08-14 11:14:00,
2013-08-14 06:19:00,61.5,59.5,30.06,NNE,15,2.0,3.0,93,0.01,,---,0.01,0.00,VWS V14.01,2013-08-14 11:19:00,
2013-08-14 06:24:00,61.6,59.6,30.06,NNE,15,2.0,3.0,93,0.01,,---,0.01,0.00,VWS V14.01,2013-08-14 11:24:00,
2013-08-14 06:29:00,61.5,59.5,30.06,NNE,15,1.0,3.0,93,0.01,,---,0.01,0.00,VWS V14.01,2013-08-14 11:29:00,
2013-08-14 06:30:00,61.5,59.5,30.06,NNE,15,0.0,3.0,93,0.01,,---,0.01,0.00,VWS V14.01,2013-08-14 11:30:00,
2013-08-14 06:34:00,61.5,59.5,30.06,NNE,15,0.0,2.0,93,0.01,,---,0.01,0.00,VWS V14.01,2013-08-14 11:34:00,
2013-08-14 06:39:00,61.3,59.3,30.06,NNE,15,1.0,2.0,93,0.01,,---,0.01,0.00,VWS V14.01,2013-08-14 11:39:00,
2013-08-14 06:44:00,61.3,59.3,30.06,NNE,15,2.0,2.0,93,0.01,,---,0.01,5.00,VWS V14.01,2013-08-14 11:44:00,
2013-08-14 06:49:00,61.3,59.3,30.06,NNE,15,1.0,4.0,93,0.01,,---,0.01,7.00,VWS V14.01,2013-08-14 11:49:00,
2013-08-14 06:54:00,61.3,59.3,30.07,NNE,15,0.0,4.0,93,0.01,,---,0.01,11.00,VWS V14.01,2013-08-14 11:54:00,
2013-08-14 06:59:00,61.3,59.3,30.07,NNE,15,0.0,4.0,93,0.01,,---,0.01,16.00,VWS V14.01,2013-08-14 11:59:00,
2013-08-14 07:00:00,61.3,59.3,30.07,NNE,15,0.0,4.0,93,0.01,,---,0.01,16.00,VWS V14.01,2013-08-14 12:00:00,
2013-08-14 07:04:00,61.3,59.3,30.07,NNE,15,0.0,0.0,93,0.00,,---,0.01,19.00,VWS V14.01,2013-08-14 12:04:00,
2013-08-14 07:09:00,61.5,59.5,30.07,NNE,15,0.0,0.0,93,0.00,,---,0.01,23.00,VWS V14.01,2013-08-14 12:09:00,
2013-08-14 07:14:00,61.5,59.5,30.07,NNE,15,0.0,0.0,93,0.00,,---,0.01,32.00,VWS V14.01,2013-08-14 12:14:00,
2013-08-14 07:19:00,61.6,59.6,30.07,NNE,15,0.0,0.0,93,0.00,,---,0.01,39.00,VWS V14.01,2013-08-14 12:19:00,
2013-08-14 07:24:00,61.6,59.6,30.08,NNE,15,0.0,0.0,93,0.00,,---,0.01,49.00,VWS V14.01,2013-08-14 12:24:00,
2013-08-14 07:29:00,61.8,59.8,30.08,NNE,15,0.0,0.0,93,0.00,,---,0.01,76.00,VWS V14.01,2013-08-14 12:29:00,
2013-08-14 07:30:00,61.8,59.8,30.08,NNE,15,0.0,0.0,93,0.00,,---,0.01,79.00,VWS V14.01,2013-08-14 12:30:00,
2013-08-14 07:34:00,62.0,60.0,30.08,NNE,15,0.0,0.0,93,0.00,,---,0.01,74.00,VWS V14.01,2013-08-14 12:34:00,
2013-08-14 07:39:00,62.4,60.3,30.08,NNE,15,0.0,0.0,93,0.00,,---,0.01,113.00,VWS V14.01,2013-08-14 12:39:00,
2013-08-14 07:44:00,62.7,60.3,30.08,NNE,15,0.0,1.0,92,0.00,,---,0.01,134.00,VWS V14.01,2013-08-14 12:44:00,
2013-08-14 07:49:00,63.1,60.4,30.08,NNE,15,0.0,1.0,91,0.00,,---,0.01,155.00,VWS V14.01,2013-08-14 12:49:00,
2013-08-14 07:54:00,63.2,60.2,30.08,NNE,15,0.0,1.0,90,0.00,,---,0.01,167.00,VWS V14.01,2013-08-14 12:54:00,
2013-08-14 07:59:00,63.7,60.7,30.09,NNE,15,0.0,1.0,90,0.00,,---,0.01,178.00,VWS V14.01,2013-08-14 12:59:00,
2013-08-14 08:00:00,63.7,60.7,30.09,NNE,15,0.0,1.0,90,0.00,,---,0.01,178.00,VWS V14.01,2013-08-14 13:00:00,
2013-08-14 08:04:00,64.0,60.7,30.09,NNE,15,0.0,1.0,89,0.00,,---,0.01,186.00,VWS V14.01,2013-08-14 13:04:00,
2013-08-14 08:09:00,64.5,61.2,30.09,NNE,15,0.0,1.0,89,0.00,,---,0.01,197.00,VWS V14.01,2013-08-14 13:09:00,
2013-08-14 08:14:00,65.0,61.0,30.09,NNE,15,0.0,1.0,87,0.00,,---,0.01,190.00,VWS V14.01,2013-08-14 13:14:00,
2013-08-14 08:19:00,65.6,61.3,30.09,NNE,15,0.0,1.0,86,0.00,,---,0.01,197.00,VWS V14.01,2013-08-14 13:19:00,
2013-08-14 08:24:00,66.3,60.7,30.09,NNE,15,0.0,1.0,82,0.00,,---,0.01,225.00,VWS V14.01,2013-08-14 13:24:00,
2013-08-14 08:29:00,66.8,61.1,30.10,NNE,15,0.0,1.0,82,0.00,,---,0.01,244.00,VWS V14.01,2013-08-14 13:29:00,
2013-08-14 08:30:00,66.8,61.1,30.10,NNE,15,0.0,1.0,82,0.00,,---,0.01,248.00,VWS V14.01,2013-08-14 13:30:00,
2013-08-14 08:34:00,67.4,60.7,30.10,NNE,15,0.0,0.0,79,0.00,,---,0.01,258.00,VWS V14.01,2013-08-14 13:34:00,
2013-08-14 08:39:00,68.1,61.3,30.10,NNE,15,0.0,1.0,79,0.00,,---,0.01,272.00,VWS V14.01,2013-08-14 13:39:00,
2013-08-14 08:44:00,68.8,61.3,30.10,NNE,15,0.0,1.0,77,0.00,,---,0.01,287.00,VWS V14.01,2013-08-14 13:44:00,
2013-08-14 08:49:00,68.9,60.7,30.10,NNE,15,0.0,1.0,75,0.00,,---,0.01,302.00,VWS V14.01,2013-08-14 13:49:00,
2013-08-14 08:54:00,68.9,60.7,30.11,NNE,15,0.0,2.0,75,0.00,,---,0.01,316.00,VWS V14.01,2013-08-14 13:54:00,
2013-08-14 08:59:00,69.1,60.5,30.10,NNE,15,0.0,2.0,74,0.00,,---,0.01,330.00,VWS V14.01,2013-08-14 13:59:00,
2013-08-14 09:00:00,69.1,60.5,30.10,NNE,15,0.0,2.0,74,0.00,,---,0.01,330.00,VWS V14.01,2013-08-14 14:00:00,
2013-08-14 09:04:00,69.4,60.8,30.10,NNE,15,0.0,2.0,74,0.00,,---,0.01,346.00,VWS V14.01,2013-08-14 14:04:00,
2013-08-14 09:09:00,69.4,60.8,30.11,NNE,15,2.0,2.0,74,0.00,,---,0.01,357.00,VWS V14.01,2013-08-14 14:09:00,
2013-08-14 09:14:00,69.8,60.8,30.10,NNE,15,3.0,3.0,73,0.00,,---,0.01,376.00,VWS V14.01,2013-08-14 14:14:00,
2013-08-14 09:19:00,70.1,60.7,30.10,SE,127,4.0,5.0,72,0.00,,---,0.01,392.00,VWS V14.01,2013-08-14 14:19:00,
2013-08-14 09:24:00,70.3,61.2,30.10,SE,128,1.0,5.0,73,0.00,,---,0.01,404.00,VWS V14.01,2013-08-14 14:24:00,
2013-08-14 09:29:00,70.4,61.3,30.10,SE,128,0.0,1.0,73,0.00,,---,0.01,420.00,VWS V14.01,2013-08-14 14:29:00,
2013-08-14 09:30:00,70.4,61.3,30.10,SE,128,1.0,5.0,73,0.00,,---,0.01,420.00,VWS V14.01,2013-08-14 14:30:00,
2013-08-14 09:34:00,70.8,60.9,30.10,SSW,198,2.0,5.0,71,0.00,,---,0.01,432.00,VWS V14.01,2013-08-14 14:34:00,
2013-08-14 09:39:00,71.1,60.8,30.10,SSE,162,0.0,6.0,70,0.00,,---,0.01,450.00,VWS V14.01,2013-08-14 14:39:00,
2013-08-14 09:45:00,70.9,60.2,30.10,SSW,201,6.0,7.0,69,0.00,,---,0.01,475.00,VWS V14.01,2013-08-14 14:45:00,
2013-08-14 09:50:00,70.8,60.9,30.11,South,172,0.0,7.0,71,0.00,,---,0.01,499.00,VWS V14.01,2013-08-14 14:50:00,
2013-08-14 09:55:00,71.3,60.6,30.10,SE,133,4.0,7.0,69,0.00,,---,0.01,526.00,VWS V14.01,2013-08-14 14:55:00,
2013-08-14 10:00:00,71.6,60.5,30.10,SSE,156,4.0,5.0,68,0.00,,---,0.01,557.00,VWS V14.01,2013-08-14 15:00:00,
2013-08-14 10:05:00,72.1,61.0,30.10,SSE,155,1.0,6.0,68,0.00,,---,0.01,591.00,VWS V14.01,2013-08-14 15:05:00,
2013-08-14 10:10:00,72.5,61.3,30.10,SSE,167,5.0,8.0,68,0.00,,---,0.01,450.00,VWS V14.01,2013-08-14 15:10:00,
2013-08-14 10:15:00,72.1,61.0,30.10,South,183,5.0,8.0,68,0.00,,---,0.01,485.00,VWS V14.01,2013-08-14 15:15:00,
2013-08-14 10:20:00,72.5,61.3,30.10,SSE,163,4.0,8.0,68,0.00,,---,0.01,520.00,VWS V14.01,2013-08-14 15:20:00,
2013-08-14 10:25:00,72.7,61.1,30.10,SE,140,4.0,9.0,67,0.00,,---,0.01,454.00,VWS V14.01,2013-08-14 15:25:00,
2013-08-14 10:30:00,72.5,61.3,30.10,SE,142,7.0,7.0,68,0.00,,---,0.01,510.00,VWS V14.01,2013-08-14 15:30:00,
2013-08-14 10:35:00,72.3,61.6,30.10,SE,133,9.0,11.0,69,0.00,,---,0.01,455.00,VWS V14.01,2013-08-14 15:35:00,
2013-08-14 10:40:00,72.5,61.8,30.10,SE,138,6.0,11.0,69,0.00,,---,0.01,404.00,VWS V14.01,2013-08-14 15:40:00,
2013-08-14 10:45:00,72.8,61.2,30.10,South,170,8.0,11.0,67,0.00,,---,0.01,592.00,VWS V14.01,2013-08-14 15:45:00,
2013-08-14 10:50:00,72.8,61.2,30.10,South,180,7.0,11.0,67,0.00,,---,0.01,492.00,VWS V14.01,2013-08-14 15:50:00,
2013-08-14 10:55:00,73.3,60.8,30.10,South,175,8.0,11.0,65,0.00,,---,0.01,473.00,VWS V14.01,2013-08-14 15:55:00,
2013-08-14 11:00:00,73.3,61.3,30.10,SSE,159,7.0,7.0,66,0.00,,---,0.01,390.00,VWS V14.01,2013-08-14 16:00:00,
2013-08-14 11:05:00,73.3,61.3,30.10,SSE,157,7.0,10.0,66,0.00,,---,0.01,390.00,VWS V14.01,2013-08-14 16:05:00,
2013-08-14 11:10:00,73.3,62.1,30.10,SSE,154,6.0,10.0,68,0.00,,---,0.01,360.00,VWS V14.01,2013-08-14 16:10:00,
2013-08-14 11:15:00,73.3,61.3,30.10,South,171,6.0,10.0,66,0.00,,---,0.01,408.00,VWS V14.01,2013-08-14 16:15:00,
2013-08-14 11:20:00,73.5,60.2,30.10,ESE,114,13.0,13.0,63,0.00,,---,0.01,438.00,VWS V14.01,2013-08-14 16:20:00,
2013-08-14 11:26:00,73.9,59.6,30.10,East,96,6.0,13.0,61,0.00,,---,0.01,831.00,VWS V14.01,2013-08-14 16:26:00,
2013-08-14 11:30:00,74.4,60.1,30.10,SE,140,7.0,13.0,61,0.00,,---,0.01,629.00,VWS V14.01,2013-08-14 16:30:00,
2013-08-14 11:31:00,74.4,60.1,30.10,SE,138,9.0,11.0,61,0.00,,---,0.01,729.00,VWS V14.01,2013-08-14 16:31:00,
2013-08-14 11:36:00,74.6,60.3,30.10,SE,136,8.0,14.0,61,0.00,,---,0.01,568.00,VWS V14.01,2013-08-14 16:36:00,
2013-08-14 11:41:00,74.6,60.7,30.10,ESE,118,5.0,14.0,62,0.00,,---,0.01,538.00,VWS V14.01,2013-08-14 16:41:00,
2013-08-14 11:46:00,74.7,60.4,30.10,SSE,162,2.0,14.0,61,0.00,,---,0.01,555.00,VWS V14.01,2013-08-14 16:46:00,
2013-08-14 11:51:00,75.1,59.8,30.10,ESE,123,16.0,16.0,59,0.00,,---,0.01,698.00,VWS V14.01,2013-08-14 16:51:00,
2013-08-14 11:56:00,75.1,58.3,30.10,SSE,164,8.0,16.0,56,0.00,,---,0.01,721.00,VWS V14.01,2013-08-14 16:56:00,
2013-08-14 12:00:00,75.1,58.3,30.10,SE,130,13.0,16.0,56,0.00,,---,0.01,659.00,VWS V14.01,2013-08-14 17:00:00,
2013-08-14 12:01:00,75.1,58.3,30.10,SE,132,12.0,13.0,56,0.00,,---,0.01,635.00,VWS V14.01,2013-08-14 17:01:00,
2013-08-14 12:06:00,74.9,58.2,30.09,ESE,119,9.0,13.0,56,0.00,,---,0.01,701.00,VWS V14.01,2013-08-14 17:06:00,
2013-08-14 12:11:00,75.3,59.5,30.09,South,183,4.0,13.0,58,0.00,,---,0.01,534.00,VWS V14.01,2013-08-14 17:11:00,
2013-08-14 12:16:00,75.6,59.8,30.09,SSW,194,2.0,13.0,58,0.00,,---,0.01,666.00,VWS V14.01,2013-08-14 17:16:00,
2013-08-14 12:21:00,76.3,59.0,30.09,South,177,9.0,13.0,55,0.00,,---,0.01,585.00,VWS V14.01,2013-08-14 17:21:00,
2013-08-14 12:26:00,76.0,59.7,30.09,South,169,4.0,13.0,57,0.00,,---,0.01,515.00,VWS V14.01,2013-08-14 17:26:00,
2013-08-14 12:30:00,76.0,58.2,30.09,SSE,154,10.0,13.0,54,0.00,,---,0.01,519.00,VWS V14.01,2013-08-14 17:30:00,
2013-08-14 12:31:00,75.8,59.5,30.09,SSE,159,7.0,12.0,57,0.00,,---,0.01,545.00,VWS V14.01,2013-08-14 17:31:00,
2013-08-14 12:37:00,75.8,59.0,30.09,SE,137,9.0,13.0,56,0.00,,---,0.01,543.00,VWS V14.01,2013-08-14 17:37:00,
2013-08-14 12:42:00,75.6,57.8,30.09,SSW,212,9.0,13.0,54,0.00,,---,0.01,626.00,VWS V14.01,2013-08-14 17:42:00,
2013-08-14 12:47:00,75.8,59.5,30.09,South,185,7.0,13.0,57,0.00,,---,0.01,536.00,VWS V14.01,2013-08-14 17:47:00,
2013-08-14 12:52:00,75.8,59.0,30.09,SE,144,6.0,13.0,56,0.00,,---,0.01,492.00,VWS V14.01,2013-08-14 17:52:00,
2013-08-14 12:57:00,75.6,59.8,30.09,ESE,111,7.0,13.0,58,0.00,,---,0.01,443.00,VWS V14.01,2013-08-14 17:57:00,
2013-08-14 13:00:00,75.6,59.8,30.08,SSE,165,6.0,13.0,58,0.00,,---,0.01,663.00,VWS V14.01,2013-08-14 18:00:00,
2013-08-14 13:02:00,75.8,59.0,30.08,South,182,2.0,9.0,56,0.00,,---,0.01,761.00,VWS V14.01,2013-08-14 18:02:00,
2013-08-14 13:07:00,76.0,58.2,30.08,SE,144,9.0,16.0,54,0.00,,---,0.01,814.00,VWS V14.01,2013-08-14 18:07:00,
2013-08-14 13:12:00,76.3,58.5,30.08,SE,140,7.0,16.0,54,0.00,,---,0.01,606.00,VWS V14.01,2013-08-14 18:12:00,
2013-08-14 13:17:00,76.7,59.3,30.08,SE,133,7.0,16.0,55,0.00,,---,0.01,707.00,VWS V14.01,2013-08-14 18:17:00,
2013-08-14 13:22:00,76.8,58.9,30.08,SSE,154,7.0,16.0,54,0.00,,---,0.01,561.00,VWS V14.01,2013-08-14 18:22:00,
2013-08-14 13:27:00,76.8,58.4,30.08,SSE,156,10.0,16.0,53,0.00,,---,0.01,461.00,VWS V14.01,2013-08-14 18:27:00,
2013-08-14 13:30:00,76.7,58.3,30.08,SE,135,4.0,16.0,53,0.00,,---,0.01,459.00,VWS V14.01,2013-08-14 18:30:00,
2013-08-14 13:32:00,76.7,58.8,30.07,SSE,148,9.0,11.0,54,0.00,,---,0.01,496.00,VWS V14.01,2013-08-14 18:32:00,
2013-08-14 13:37:00,76.5,59.2,30.07,ESE,113,5.0,11.0,55,0.00,,---,0.01,431.00,VWS V14.01,2013-08-14 18:37:00,
2013-08-14 13:42:00,77.0,59.1,30.07,ESE,116,5.0,11.0,54,0.00,,---,0.01,489.00,VWS V14.01,2013-08-14 18:42:00,
2013-08-14 13:48:00,77.0,58.6,30.07,SE,146,8.0,12.0,53,0.00,,---,0.01,599.00,VWS V14.01,2013-08-14 18:48:00,
2013-08-14 13:53:00,76.8,57.9,30.07,SE,142,6.0,13.0,52,0.00,,---,0.01,418.00,VWS V14.01,2013-08-14 18:53:00,
2013-08-14 13:59:00,77.0,59.1,30.07,East,98,6.0,13.0,54,0.00,,---,0.01,369.00,VWS V14.01,2013-08-14 18:59:00,
2013-08-14 14:00:00,77.0,59.1,30.07,SSE,167,5.0,13.0,54,0.00,,---,0.01,371.00,VWS V14.01,2013-08-14 19:00:00,
2013-08-14 14:04:00,77.4,59.5,30.06,SW,220,5.0,10.0,54,0.00,,---,0.01,383.00,VWS V14.01,2013-08-14 19:04:00,
2013-08-14 14:12:00,77.6,59.1,30.06,SE,127,12.0,13.0,53,0.00,,---,0.01,399.00,VWS V14.01,2013-08-14 19:12:00,
2013-08-14 14:17:00,77.4,59.5,30.06,SE,135,9.0,14.0,54,0.00,,---,0.01,367.00,VWS V14.01,2013-08-14 19:17:00,
2013-08-14 14:22:00,77.6,60.2,30.06,SSE,167,4.0,14.0,55,0.00,,---,0.01,346.00,VWS V14.01,2013-08-14 19:22:00,
2013-08-14 14:28:00,77.7,58.7,30.06,South,172,8.0,14.0,52,0.00,,---,0.01,385.00,VWS V14.01,2013-08-14 19:28:00,
2013-08-14 14:30:00,77.9,59.4,30.06,SE,138,8.0,14.0,53,0.00,,---,0.01,397.00,VWS V14.01,2013-08-14 19:30:00,
2013-08-14 14:32:00,77.9,59.4,30.05,SSE,148,8.0,9.0,53,0.00,,---,0.01,359.00,VWS V14.01,2013-08-14 19:32:00,
2013-08-14 14:38:00,77.9,59.4,30.05,SSW,197,8.0,13.0,53,0.00,,---,0.01,357.00,VWS V14.01,2013-08-14 19:38:00,
2013-08-14 14:43:00,77.7,59.2,30.05,SE,139,11.0,14.0,53,0.00,,---,0.01,396.00,VWS V14.01,2013-08-14 19:43:00,
2013-08-14 14:48:00,77.9,58.9,30.05,South,184,7.0,14.0,52,0.00,,---,0.01,355.00,VWS V14.01,2013-08-14 19:48:00,
2013-08-14 14:53:00,77.9,58.3,30.05,SSW,213,4.0,14.0,51,0.00,,---,0.01,381.00,VWS V14.01,2013-08-14 19:53:00,
2013-08-14 14:58:00,78.3,59.2,30.05,South,174,5.0,14.0,52,0.00,,---,0.01,387.00,VWS V14.01,2013-08-14 19:58:00,
2013-08-14 15:00:00,78.5,59.4,30.05,South,178,11.0,14.0,52,0.00,,---,0.01,387.00,VWS V14.01,2013-08-14 20:00:00,
2013-08-14 15:03:00,78.8,57.5,30.04,SE,135,5.0,13.0,48,0.00,,---,0.01,355.00,VWS V14.01,2013-08-14 20:03:00,
2013-08-14 15:08:00,78.6,57.9,30.04,SE,138,13.0,14.0,49,0.00,,---,0.01,316.00,VWS V14.01,2013-08-14 20:08:00,
2013-08-14 15:13:00,78.5,58.9,30.04,South,169,10.0,14.0,51,0.00,,---,0.01,327.00,VWS V14.01,2013-08-14 20:13:00,
2013-08-14 15:18:00,78.8,59.2,30.04,SE,138,9.0,14.0,51,0.00,,---,0.01,290.00,VWS V14.01,2013-08-14 20:18:00,
2013-08-14 15:24:00,78.6,56.1,30.04,SE,130,8.0,16.0,46,0.00,,---,0.01,271.00,VWS V14.01,2013-08-14 20:24:00,
2013-08-14 15:29:00,78.6,57.3,30.04,SE,131,4.0,16.0,48,0.00,,---,0.01,315.00,VWS V14.01,2013-08-14 20:29:00,
2013-08-14 15:30:00,78.6,57.3,30.04,South,171,2.0,16.0,48,0.00,,---,0.01,364.00,VWS V14.01,2013-08-14 20:30:00,
2013-08-14 15:34:00,79.2,56.7,30.03,SW,227,2.0,12.0,46,0.00,,---,0.01,420.00,VWS V14.01,2013-08-14 20:34:00,
2013-08-14 15:39:00,79.4,56.8,30.03,SSE,151,4.0,12.0,46,0.00,,---,0.01,789.00,VWS V14.01,2013-08-14 20:39:00,
2013-08-14 15:44:00,79.4,57.4,30.03,SSE,161,5.0,13.0,47,0.00,,---,0.01,796.00,VWS V14.01,2013-08-14 20:44:00,
2013-08-14 15:49:00,79.4,57.4,30.03,SE,132,11.0,13.0,47,0.00,,---,0.01,796.00,VWS V14.01,2013-08-14 20:49:00,
2013-08-14 15:54:00,79.4,56.8,30.03,SSE,153,5.0,13.0,46,0.00,,---,0.01,522.00,VWS V14.01,2013-08-14 20:54:00,
2013-08-14 15:59:00,79.0,55.9,30.03,SE,141,6.0,13.0,45,0.00,,---,0.01,374.00,VWS V14.01,2013-08-14 20:59:00,
2013-08-14 16:00:00,79.0,55.9,30.03,SE,141,6.0,13.0,45,0.00,,---,0.01,374.00,VWS V14.01,2013-08-14 21:00:00,
2013-08-14 16:04:00,78.8,56.9,30.03,SSE,150,4.0,11.0,47,0.00,,---,0.01,524.00,VWS V14.01,2013-08-14 21:04:00,
2013-08-14 16:10:00,79.6,57.6,30.02,East,96,4.0,11.0,47,0.00,,---,0.01,694.00,VWS V14.01,2013-08-14 21:10:00,
2013-08-14 16:15:00,79.9,56.7,30.02,South,184,4.0,11.0,45,0.00,,---,0.01,708.00,VWS V14.01,2013-08-14 21:15:00,
2013-08-14 16:20:00,79.8,55.3,30.02,South,174,8.0,11.0,43,0.00,,---,0.01,712.00,VWS V14.01,2013-08-14 21:20:00,
2013-08-14 16:25:00,79.6,55.8,30.02,SE,139,8.0,13.0,44,0.00,,---,0.01,675.00,VWS V14.01,2013-08-14 21:25:00,
2013-08-14 16:30:00,79.8,55.3,30.02,SSE,155,5.0,7.0,43,0.00,,---,0.01,679.00,VWS V14.01,2013-08-14 21:30:00,
2013-08-14 16:35:00,80.3,55.8,30.01,South,190,3.0,10.0,43,0.00,,---,0.01,684.00,VWS V14.01,2013-08-14 21:35:00,
2013-08-14 16:40:00,80.3,57.0,30.01,SW,228,6.0,13.0,45,0.00,,---,0.01,276.00,VWS V14.01,2013-08-14 21:40:00,
2013-08-14 16:45:00,79.8,56.0,30.01,SSE,160,8.0,13.0,44,0.00,,---,0.01,262.00,VWS V14.01,2013-08-14 21:45:00,
2013-08-14 16:50:00,79.6,56.4,30.01,ESE,123,2.0,13.0,45,0.00,,---,0.01,380.00,VWS V14.01,2013-08-14 21:50:00,
2013-08-14 16:55:00,79.8,56.6,30.01,South,171,11.0,13.0,45,0.00,,---,0.01,385.00,VWS V14.01,2013-08-14 21:55:00,
2013-08-14 17:00:00,79.6,55.8,30.01,South,169,5.0,9.0,44,0.00,,---,0.01,229.00,VWS V14.01,2013-08-14 22:00:00,
2013-08-14 17:05:00,79.6,56.4,30.01,South,175,8.0,10.0,45,0.00,,---,0.01,220.00,VWS V14.01,2013-08-14 22:05:00,
2013-08-14 17:10:00,79.6,56.4,30.00,SSE,168,9.0,10.0,45,0.00,,---,0.01,218.00,VWS V14.01,2013-08-14 22:10:00,
2013-08-14 17:15:00,79.2,56.0,30.00,South,188,7.0,12.0,45,0.00,,---,0.01,202.00,VWS V14.01,2013-08-14 22:15:00,
2013-08-14 17:20:00,79.0,55.9,30.00,SSE,167,5.0,12.0,45,0.00,,---,0.01,207.00,VWS V14.01,2013-08-14 22:20:00,
2013-08-14 17:25:00,79.0,57.1,30.00,SSE,151,7.0,12.0,47,0.00,,---,0.01,227.00,VWS V14.01,2013-08-14 22:25:00,
2013-08-14 17:30:00,79.0,55.9,30.00,SE,132,11.0,11.0,45,0.00,,---,0.01,283.00,VWS V14.01,2013-08-14 22:30:00,
2013-08-14 17:35:00,79.0,55.9,30.00,SSE,157,9.0,11.0,45,0.00,,---,0.01,220.00,VWS V14.01,2013-08-14 22:35:00,
2013-08-14 17:40:00,79.2,56.7,30.00,SSW,192,5.0,11.0,46,0.00,,---,0.01,186.00,VWS V14.01,2013-08-14 22:40:00,
2013-08-14 17:46:00,79.2,56.0,30.00,SSE,159,5.0,11.0,45,0.00,,---,0.01,148.00,VWS V14.01,2013-08-14 22:46:00,
2013-08-14 17:51:00,79.0,55.9,30.00,SSE,163,6.0,11.0,45,0.00,,---,0.01,149.00,VWS V14.01,2013-08-14 22:51:00,
2013-08-14 17:56:00,79.0,57.1,30.00,South,169,5.0,11.0,47,0.00,,---,0.01,153.00,VWS V14.01,2013-08-14 22:56:00,
2013-08-14 18:00:00,79.0,57.1,30.00,SSE,158,6.0,11.0,47,0.00,,---,0.01,149.00,VWS V14.01,2013-08-14 23:00:00,
2013-08-14 18:01:00,79.0,57.1,30.00,SSW,208,5.0,7.0,47,0.00,,---,0.01,151.00,VWS V14.01,2013-08-14 23:01:00,
2013-08-14 18:06:00,79.0,57.7,29.99,SSE,153,8.0,8.0,48,0.00,,---,0.01,156.00,VWS V14.01,2013-08-14 23:06:00,
2013-08-14 18:11:00,78.8,57.5,29.99,SSE,161,7.0,10.0,48,0.00,,---,0.01,183.00,VWS V14.01,2013-08-14 23:11:00,
2013-08-14 18:16:00,79.0,57.7,29.99,SE,138,4.0,10.0,48,0.00,,---,0.01,415.00,VWS V14.01,2013-08-14 23:16:00,
2013-08-14 18:21:00,79.4,59.7,29.99,SE,127,6.0,10.0,51,0.00,,---,0.01,415.00,VWS V14.01,2013-08-14 23:21:00,
2013-08-14 18:26:00,79.4,59.2,29.98,SSE,165,5.0,10.0,50,0.00,,---,0.01,156.00,VWS V14.01,2013-08-14 23:26:00,
2013-08-14 18:30:00,79.0,59.3,29.98,SSE,150,2.0,10.0,51,0.00,,---,0.01,132.00,VWS V14.01,2013-08-14 23:30:00,
2013-08-14 18:31:00,79.0,59.9,29.98,SSE,163,7.0,7.0,52,0.00,,---,0.01,127.00,VWS V14.01,2013-08-14 23:31:00,
2013-08-14 18:36:00,78.6,59.0,29.98,ESE,123,9.0,9.0,51,0.00,,---,0.01,104.00,VWS V14.01,2013-08-14 23:36:00,
2013-08-14 18:41:00,78.3,59.2,29.97,SSE,147,10.0,12.0,52,0.00,,---,0.01,105.00,VWS V14.01,2013-08-14 23:41:00,
2013-08-14 18:46:00,78.1,59.6,29.97,SE,134,7.0,13.0,53,0.00,,---,0.01,90.00,VWS V14.01,2013-08-14 23:46:00,
2013-08-14 18:51:00,78.1,59.6,29.97,SE,138,8.0,13.0,53,0.00,,---,0.01,91.00,VWS V14.01,2013-08-14 23:51:00,
2013-08-14 18:56:00,78.1,60.1,29.97,SE,127,8.0,13.0,54,0.00,,---,0.01,72.00,VWS V14.01,2013-08-14 23:56:00,
2013-08-14 19:00:00,77.9,60.5,29.97,East,86,6.0,13.0,55,0.00,,---,0.01,69.00,VWS V14.01,2013-08-15 00:00:00,
2013-08-14 19:01:00,77.9,59.9,29.97,ESE,103,5.0,8.0,54,0.00,,---,0.01,69.00,VWS V14.01,2013-08-15 00:01:00,
2013-08-14 19:06:00,77.9,59.9,29.97,ESE,117,8.0,11.0,54,0.00,,---,0.01,62.00,VWS V14.01,2013-08-15 00:06:00,
2013-08-14 19:11:00,77.7,60.3,29.97,SE,125,9.0,11.0,55,0.00,,---,0.01,58.00,VWS V14.01,2013-08-15 00:11:00,
2013-08-14 19:16:00,77.6,60.2,29.97,ESE,123,6.0,11.0,55,0.00,,---,0.01,51.00,VWS V14.01,2013-08-15 00:16:00,
2013-08-14 19:21:00,77.6,60.7,29.97,SE,140,5.0,11.0,56,0.00,,---,0.01,42.00,VWS V14.01,2013-08-15 00:21:00,
2013-08-14 19:26:00,77.4,61.0,29.97,SE,126,4.0,11.0,57,0.00,,---,0.01,37.00,VWS V14.01,2013-08-15 00:26:00,
2013-08-14 19:30:00,77.2,60.8,29.97,SE,137,4.0,11.0,57,0.00,,---,0.01,33.00,VWS V14.01,2013-08-15 00:30:00,
2013-08-14 19:31:00,77.2,60.8,29.97,SE,128,6.0,7.0,57,0.00,,---,0.01,33.00,VWS V14.01,2013-08-15 00:31:00,
2013-08-14 19:36:00,77.2,60.8,29.97,ESE,111,7.0,9.0,57,0.00,,---,0.01,30.00,VWS V14.01,2013-08-15 00:36:00,
2013-08-14 19:41:00,77.0,60.6,29.97,SE,126,8.0,9.0,57,0.00,,---,0.01,26.00,VWS V14.01,2013-08-15 00:41:00,
2013-08-14 19:46:00,76.8,60.4,29.97,SE,130,9.0,11.0,57,0.00,,---,0.01,25.00,VWS V14.01,2013-08-15 00:46:00,
2013-08-14 19:51:00,76.8,60.9,29.97,SE,124,7.0,11.0,58,0.00,,---,0.01,21.00,VWS V14.01,2013-08-15 00:51:00,
2013-08-14 19:56:00,76.7,60.3,29.97,SE,128,7.0,12.0,57,0.00,,---,0.01,21.00,VWS V14.01,2013-08-15 00:56:00,
2013-08-14 19:57:00,76.7,60.3,29.97,SE,125,12.0,12.0,57,0.00,,---,0.01,21.00,VWS V14.01,2013-08-15 00:57:00,
2013-08-14 20:00:00,76.7,60.3,29.97,ESE,123,4.0,12.0,57,0.00,,---,0.01,30.00,VWS V14.01,2013-08-15 01:00:00,
2013-08-14 20:02:00,76.5,60.6,29.97,SE,136,7.0,8.0,58,0.00,,---,0.01,21.00,VWS V14.01,2013-08-15 01:02:00,
2013-08-14 20:07:00,76.5,60.6,29.98,SE,127,5.0,14.0,58,0.00,,---,0.01,19.00,VWS V14.01,2013-08-15 01:07:00,
2013-08-14 20:12:00,76.3,60.5,29.98,SE,126,6.0,14.0,58,0.00,,---,0.01,11.00,VWS V14.01,2013-08-15 01:12:00,
2013-08-14 20:17:00,76.3,60.0,29.98,SE,130,8.0,14.0,57,0.00,,---,0.01,7.00,VWS V14.01,2013-08-15 01:17:00,
2013-08-14 20:22:00,76.1,59.8,29.98,ESE,111,8.0,14.0,57,0.00,,---,0.01,5.00,VWS V14.01,2013-08-15 01:22:00,
2013-08-14 20:27:00,76.0,60.2,29.98,SE,131,5.0,14.0,58,0.00,,---,0.01,0.00,VWS V14.01,2013-08-15 01:27:00,
2013-08-14 20:30:00,76.0,60.2,29.98,ESE,113,7.0,14.0,58,0.00,,---,0.01,0.00,VWS V14.01,2013-08-15 01:30:00,
2013-08-14 20:32:00,76.0,60.2,29.98,SE,134,9.0,9.0,58,0.00,,---,0.01,0.00,VWS V14.01,2013-08-15 01:32:00,
2013-08-14 20:37:00,75.8,60.0,29.98,SE,137,7.0,11.0,58,0.00,,---,0.01,0.00,VWS V14.01,2013-08-15 01:37:00,
2013-08-14 20:42:00,75.8,60.0,29.98,SE,130,6.0,11.0,58,0.00,,---,0.01,0.00,VWS V14.01,2013-08-15 01:42:00,
2013-08-14 20:47:00,75.6,59.8,29.98,ESE,121,8.0,11.0,58,0.00,,---,0.01,0.00,VWS V14.01,2013-08-15 01:47:00,
2013-08-14 20:52:00,75.6,61.2,29.98,SE,132,6.0,11.0,61,0.00,,---,0.01,0.00,VWS V14.01,2013-08-15 01:52:00,
2013-08-14 20:57:00,75.4,60.1,29.99,SE,137,7.0,12.0,59,0.00,,---,0.01,0.00,VWS V14.01,2013-08-15 01:57:00,
2013-08-14 21:00:00,75.4,60.6,29.99,SE,133,8.0,12.0,60,0.00,,---,0.01,0.00,VWS V14.01,2013-08-15 02:00:00,
2013-08-14 21:02:00,75.3,60.0,29.98,ESE,123,5.0,9.0,59,0.00,,---,0.01,0.00,VWS V14.01,2013-08-15 02:02:00,
2013-08-14 21:07:00,75.3,60.5,29.99,SSE,157,6.0,11.0,60,0.00,,---,0.01,0.00,VWS V14.01,2013-08-15 02:07:00,
2013-08-14 21:12:00,75.1,60.8,29.99,SE,131,8.0,11.0,61,0.00,,---,0.01,0.00,VWS V14.01,2013-08-15 02:12:00,
2013-08-14 21:17:00,74.9,60.6,29.99,SE,135,5.0,11.0,61,0.00,,---,0.01,0.00,VWS V14.01,2013-08-15 02:17:00,
2013-08-14 21:22:00,74.9,61.0,29.99,SE,130,8.0,11.0,62,0.00,,---,0.01,0.00,VWS V14.01,2013-08-15 02:22:00,
2013-08-14 21:27:00,74.7,60.8,29.99,SE,132,6.0,11.0,62,0.00,,---,0.01,0.00,VWS V14.01,2013-08-15 02:27:00,
2013-08-14 21:30:00,74.6,60.7,29.99,SSE,150,6.0,11.0,62,0.00,,---,0.01,0.00,VWS V14.01,2013-08-15 02:30:00,
2013-08-14 21:32:00,74.6,60.7,29.99,ESE,118,9.0,9.0,62,0.00,,---,0.01,0.00,VWS V14.01,2013-08-15 02:32:00,
2013-08-14 21:37:00,74.4,61.0,30.00,SE,142,5.0,12.0,63,0.00,,---,0.01,0.00,VWS V14.01,2013-08-15 02:37:00,
2013-08-14 21:42:00,74.2,60.8,30.00,SE,142,6.0,12.0,63,0.00,,---,0.01,0.00,VWS V14.01,2013-08-15 02:42:00,
2013-08-14 21:47:00,74.0,61.1,30.00,SE,127,6.0,12.0,64,0.00,,---,0.01,0.00,VWS V14.01,2013-08-15 02:47:00,
2013-08-14 21:53:00,73.9,61.0,30.00,SE,126,5.0,12.0,64,0.00,,---,0.01,0.00,VWS V14.01,2013-08-15 02:53:00,
2013-08-14 21:58:00,73.7,61.2,30.00,SE,124,8.0,12.0,65,0.00,,---,0.01,0.00,VWS V14.01,2013-08-15 02:58:00,
2013-08-14 22:00:00,73.5,61.0,30.00,SE,126,5.0,12.0,65,0.00,,---,0.01,0.00,VWS V14.01,2013-08-15 03:00:00,
2013-08-14 22:03:00,73.3,61.3,30.00,ESE,121,4.0,9.0,66,0.00,,---,0.01,0.00,VWS V14.01,2013-08-15 03:03:00,
2013-08-14 22:08:00,73.0,61.4,30.00,SE,126,5.0,9.0,67,0.00,,---,0.01,0.00,VWS V14.01,2013-08-15 03:08:00,
2013-08-14 22:13:00,72.7,61.1,30.00,SE,124,9.0,11.0,67,0.00,,---,0.01,0.00,VWS V14.01,2013-08-15 03:13:00,
2013-08-14 22:18:00,72.5,61.3,30.00,SSE,150,9.0,13.0,68,0.00,,---,0.01,0.00,VWS V14.01,2013-08-15 03:18:00,
2013-08-14 22:23:00,72.5,62.6,30.00,SE,138,8.0,13.0,71,0.00,,---,0.01,0.00,VWS V14.01,2013-08-15 03:23:00,
2013-08-14 22:28:00,72.5,61.3,30.00,SE,129,11.0,13.0,68,0.00,,---,0.01,0.00,VWS V14.01,2013-08-15 03:28:00,
2013-08-14 22:30:00,72.5,61.3,30.00,SE,133,6.0,13.0,68,0.00,,---,0.01,0.00,VWS V14.01,2013-08-15 03:30:00,
2013-08-14 22:33:00,72.3,61.2,30.00,SE,145,10.0,11.0,68,0.00,,---,0.01,0.00,VWS V14.01,2013-08-15 03:33:00,
2013-08-14 22:38:00,72.3,61.6,30.00,SSE,149,7.0,14.0,69,0.00,,---,0.01,0.00,VWS V14.01,2013-08-15 03:38:00,
2013-08-14 22:43:00,72.0,61.3,30.01,SE,142,7.0,14.0,69,0.00,,---,0.01,0.00,VWS V14.01,2013-08-15 03:43:00,
2013-08-14 22:48:00,71.8,61.5,30.01,SSE,151,7.0,14.0,70,0.00,,---,0.01,0.00,VWS V14.01,2013-08-15 03:48:00,
2013-08-14 22:53:00,71.8,61.5,30.01,SE,145,8.0,14.0,70,0.00,,---,0.01,0.00,VWS V14.01,2013-08-15 03:53:00,
2013-08-14 22:58:00,71.6,61.3,30.01,SSE,155,6.0,14.0,70,0.00,,---,0.01,0.00,VWS V14.01,2013-08-15 03:58:00,
2013-08-14 23:00:00,71.5,61.2,30.01,SE,132,8.0,14.0,70,0.00,,---,0.01,0.00,VWS V14.01,2013-08-15 04:00:00,
2013-08-14 23:01:00,71.5,61.2,30.01,SE,146,6.0,10.0,70,0.00,,---,0.01,0.00,VWS V14.01,2013-08-15 04:01:00,
2013-08-14 23:02:00,71.5,61.2,30.01,SE,141,7.0,10.0,70,0.00,,---,0.01,0.00,VWS V14.01,2013-08-15 04:02:00,
2013-08-14 23:07:00,71.3,61.4,30.01,SSE,150,5.0,10.0,71,0.00,,---,0.01,0.00,VWS V14.01,2013-08-15 04:07:00,
2013-08-14 23:12:00,71.1,61.2,30.01,SE,136,6.0,10.0,71,0.00,,---,0.01,0.00,VWS V14.01,2013-08-15 04:12:00,
2013-08-14 23:17:00,70.9,61.4,30.01,SE,129,6.0,10.0,72,0.00,,---,0.01,0.00,VWS V14.01,2013-08-15 04:17:00,
2013-08-14 23:22:00,70.8,61.3,30.01,SE,145,9.0,12.0,72,0.00,,---,0.01,0.00,VWS V14.01,2013-08-15 04:22:00,
2013-08-14 23:27:00,70.6,61.1,30.01,SSE,165,7.0,12.0,72,0.00,,---,0.01,0.00,VWS V14.01,2013-08-15 04:27:00,
2013-08-14 23:30:00,70.4,61.0,30.01,SE,134,6.0,12.0,72,0.00,,---,0.01,0.00,VWS V14.01,2013-08-15 04:30:00,
2013-08-14 23:32:00,70.4,61.3,30.01,South,176,8.0,12.0,73,0.00,,---,0.01,0.00,VWS V14.01,2013-08-15 04:32:00,
2013-08-14 23:37:00,70.1,61.0,30.01,SE,144,6.0,12.0,73,0.00,,---,0.01,0.00,VWS V14.01,2013-08-15 04:37:00,
2013-08-14 23:42:00,69.9,61.2,30.01,SE,146,8.0,12.0,74,0.00,,---,0.01,0.00,VWS V14.01,2013-08-15 04:42:00,
2013-08-14 23:47:00,69.9,61.2,30.01,South,177,7.0,12.0,74,0.00,,---,0.01,0.00,VWS V14.01,2013-08-15 04:47:00,
2013-08-14 23:52:00,69.8,61.2,30.02,SSE,161,9.0,12.0,74,0.00,,---,0.01,0.00,VWS V14.01,2013-08-15 04:52:00,
2013-08-14 23:57:00,69.8,61.2,30.02,SSE,168,9.0,13.0,74,0.00,,---,0.01,0.00,VWS V14.01,2013-08-15 04:57:00,